Weather History for KMCE - March, 2013

Change the Weather History Date:

Wednesday, March 6, 2013

  Actual Average Record
Temperature  
Mean Temperature 55 °F 53 °F  
Max Temperature 60 °F 64 °F 76 °F (2007)
Min Temperature 49 °F 41 °F 34 °F (2015)
Degree Days  
Heating Degree Days 10    
Month to date heating degree days 46  
Since 1 July heating degree days 1958  
Cooling Degree Days 0    
Month to date cooling degree days 0  
Year to date cooling degree days 0  
Growing Degree Days 4 (Base 50)    
Moisture  
Dew Point 43 °F    
Average Humidity 67    
Maximum Humidity 86    
Minimum Humidity 47    
Precipitation  
Precipitation 0.19 in 0.08 in 0.60 in (2002)
Month to date precipitation 0.19 0.53  
Year to date precipitation 1.61 5.48  
Since 1 July precipitation 6.44  
Snow  
Snow 0.00 in - - ()
Month to date snowfall 0.0  
Since 1 July snowfall 0.0  
Snow Depth 0.00 in    
Sea Level Pressure  
Sea Level Pressure 30.03 in    
Wind  
Wind Speed 7 mph (SSE)    
Max Wind Speed 22 mph    
Max Gust Speed 29 mph    
Visibility 8 miles    
Events Rain    
T = Trace of Precipitation, MM = Missing Value Source: NWS Daily Summary

Daily Weather History Graph

Daily Weather History Graph

Search for Another Location

Airport or City:

Trip Planner

Search our weather history database for the weather conditions in past years. The results will help you decide how hot, cold, wet, or windy it might be!

Date:

Astronomy

Mar. 06, 2013 Rise Set
Actual Time 6:25 AM PST 6:01 PM PST
Civil Twilight 5:59 AM PST 6:27 PM PST
Nautical Twilight 5:29 AM PST 6:57 PM PST
Astronomical Twilight 4:59 AM PST 7:27 PM PST
Moon 2:34 AM PST (3/6) 12:53 PM PST (3/6)
Length of Visible Light 12h 27m
Length of Day
11h 35m
Waning Crescent, 29% of the Moon is Illuminated
Mar 6
Waning Crescent
Mar 11
New
Mar 19
First Quarter
Mar 27
Full
Apr 2
Last Quarter

Hourly Weather History & Observations

Time (PST) Temp. Dew Point Humidity Pressure Visibility Wind Dir Wind Speed Gust Speed Precip Events Conditions
12:53 AM 51.1 °F 42.1 °F 71% 29.95 in 10.0 mi East 6.9 mph - 0.02 in Rain Light Rain
1:53 AM 52.0 °F 42.1 °F 69% 29.96 in 10.0 mi SE 13.8 mph 18.4 mph 0.00 in   Overcast
2:53 AM 51.1 °F 39.9 °F 66% 29.96 in 10.0 mi ESE 13.8 mph - N/A   Overcast
3:53 AM 50.0 °F 39.9 °F 68% 29.98 in 10.0 mi ESE 15.0 mph - N/A   Overcast
4:53 AM 51.1 °F 39.9 °F 66% 29.98 in 10.0 mi SE 19.6 mph - N/A   Overcast
5:53 AM 48.9 °F 42.1 °F 77% 30.00 in 9.0 mi SE 13.8 mph - 0.01 in Rain Light Rain
6:53 AM 48.9 °F 43.0 °F 80% 30.02 in 10.0 mi ESE 10.4 mph - 0.02 in   Overcast
7:53 AM 50.0 °F 44.1 °F 80% 30.05 in 10.0 mi SSE 12.7 mph - 0.00 in   Overcast
8:15 AM 48.2 °F 44.6 °F 87% 30.07 in 1.8 mi Variable 4.6 mph - 0.03 in Rain Rain
8:33 AM 48.2 °F 44.6 °F 87% 30.08 in 2.5 mi SW 5.8 mph - 0.06 in Rain Light Rain
8:42 AM 48.2 °F 44.6 °F 87% 30.08 in 4.0 mi SW 8.1 mph - 0.07 in Rain Light Rain
8:53 AM 48.9 °F 45.0 °F 86% 30.08 in 2.0 mi South 4.6 mph - 0.07 in Rain Light Rain
9:05 AM 48.2 °F 44.6 °F 87% 30.08 in 2.5 mi SSE 8.1 mph - 0.02 in Rain Light Rain
9:25 AM 50.0 °F 46.4 °F 87% 30.09 in 4.0 mi South 4.6 mph - 0.04 in Rain Light Rain
9:53 AM 50.0 °F 46.9 °F 89% 30.09 in 4.0 mi South 8.1 mph - 0.06 in Rain Light Rain
10:53 AM 52.0 °F 46.9 °F 83% 30.10 in 10.0 mi SE 8.1 mph - 0.01 in   Overcast
11:53 AM 54.0 °F 46.9 °F 77% 30.10 in 10.0 mi SSE 4.6 mph - N/A   Overcast
12:53 PM 57.0 °F 46.0 °F 67% 30.07 in 10.0 mi Calm Calm - N/A   Scattered Clouds
1:53 PM 57.9 °F 43.0 °F 58% 30.06 in 10.0 mi Calm Calm - N/A   Scattered Clouds
2:53 PM 59.0 °F 42.1 °F 53% 30.05 in 10.0 mi Variable 4.6 mph - N/A   Partly Cloudy
3:53 PM 59.0 °F 39.9 °F 49% 30.04 in 10.0 mi Calm Calm - N/A   Clear
4:53 PM 57.9 °F 39.0 °F 49% 30.02 in 10.0 mi Calm Calm - N/A   Scattered Clouds
5:53 PM 55.9 °F 39.0 °F 53% 30.01 in 10.0 mi Calm Calm - N/A   Clear
6:53 PM 53.1 °F 43.0 °F 69% 30.01 in 10.0 mi East 4.6 mph - N/A   Clear
7:53 PM 53.1 °F 45.0 °F 74% 30.01 in 10.0 mi Calm Calm - N/A   Clear
8:53 PM 52.0 °F 45.0 °F 77% 30.00 in 10.0 mi Calm Calm - N/A   Mostly Cloudy
9:53 PM 51.1 °F 44.1 °F 77% 30.00 in 10.0 mi West 3.5 mph - N/A   Overcast
10:53 PM 51.1 °F 43.0 °F 74% 29.99 in 10.0 mi NW 6.9 mph - N/A   Overcast
11:53 PM 50.0 °F 41.0 °F 71% 29.99 in 10.0 mi NW 8.1 mph - N/A   Overcast